Location: Boiro
(42.6475°N, 8.8834°W)
Time: 00:10:12
(UTC+01:00)

Transit 2A - Pass Details

Date: 04 December 2021
Orbit: 591 x 967 km, 66.7° (Epoch: 18 January)

Event Time Altitude Azimuth Distance (km) Brightness Sun altitude
Rises 03:00:44 0° 248° (WSW) 3,342 - -61.6°
Reaches altitude 10° 03:03:29 10° 261° (W) 2,475 - -61.2°
Maximum altitude 03:08:17 26° 317° (NW) 1,680 - -60.5°
Drops below altitude 10° 03:13:26 10° 13° (NNE) 2,657 - -59.7°
Sets 03:16:31 0° 26° (NNE) 3,637 - -59.2°
